Theta_e
329 317 310 308 299 297 294 299 305 306 310 313 316 315 319 321 320 313 341 348 354 355 358 360 362 362 361 361 360 359 360 360 360 359 359 359 360 360 360 360 360 357 355 352 350 352 353 353 353
323 313 307 302 294 290 293 301 303 306 311 313 315 326 326 324 335 338 340 352 353 355 357 358 362 362 361 360 359 359 359 360 360 360 360 359 359 358 358 358 357 354 352 350 351 352 352 353 352
321 310 300 297 292 291 293 304 304 308 311 311 311 327 328 327 341 339 348 354 354 354 355 358 361 361 361 360 359 359 358 359 360 360 360 359 359 358 356 356 354 352 350 350 350 350 351 352 351
305 303 299 293 292 296 300 304 307 307 311 313 319 323 330 338 342 347 353 354 352 352 355 360 361 361 361 360 359 359 358 358 359 359 358 358 357 356 355 354 353 353 350 349 348 349 350 350 348
302 297 291 289 292 297 303 307 306 306 308 310 318 322 326 342 349 351 352 353 351 352 355 358 360 361 361 360 359 359 358 358 358 359 358 357 357 355 354 354 353 352 351 350 348 348 348 347 346
296 295 287 289 293 300 302 306 305 306 309 310 323 325 326 346 347 349 351 351 353 352 355 356 360 360 360 360 359 358 358 358 358 358 358 358 357 355 354 353 353 353 352 350 349 349 347 346 344
293 290 288 289 293 298 301 308 304 306 307 313 326 321 327 338 346 348 349 352 353 355 354 355 356 358 360 359 358 358 357 357 357 357 357 357 356 355 354 353 353 353 352 351 350 349 348 346 344
296 291 288 291 293 295 303 307 306 305 308 319 330 321 320 335 345 347 350 350 351 352 354 354 355 355 355 356 359 358 357 357 357 357 357 356 356 355 354 352 352 352 352 351 350 349 348 347 345
296 288 286 289 293 294 303 301 311 311 312 325 327 329 333 342 343 344 345 346 347 349 350 353 354 355 355 354 356 358 358 357 357 357 357 354 349 348 348 349 350 353 352 351 351 349 348 347 346
290 285 289 293 295 295 301 301 304 305 305 315 324 333 339 340 338 340 340 340 342 344 347 351 351 352 353 354 354 354 353 352 352 352 351 348 343 342 345 347 350 353 352 351 351 350 349 347 336
290 288 292 295 298 299 300 300 304 303 302 307 315 329 333 334 335 339 340 341 341 344 347 349 350 350 351 352 353 352 353 352 350 350 349 344 343 341 342 339 341 341 348 341 344 342 340 337 335
287 292 295 295 298 298 299 302 303 304 304 309 316 328 328 331 332 338 339 341 341 341 344 348 349 349 350 351 352 350 351 352 350 350 347 343 339 337 336 336 335 336 338 338 335 335 334 334 335
287 291 294 298 298 298 300 300 301 302 306 310 325 326 325 328 331 337 341 343 343 341 342 345 347 347 348 347 349 349 350 350 349 349 348 346 341 336 336 335 332 333 335 334 332 331 331 331 331
293 294 295 295 295 296 297 299 301 304 307 307 310 311 322 328 330 329 333 340 342 343 342 343 344 345 346 346 347 348 350 350 349 348 347 345 342 337 334 332 332 333 334 334 334 331 329 328 327
296 291 294 295 295 295 297 295 298 303 305 306 306 308 309 314 324 321 330 334 342 343 343 341 342 343 342 342 346 345 347 349 347 346 346 346 343 335 334 332 332 333 332 333 333 332 329 328 331
291 288 284 294 296 297 297 291 300 303 303 304 305 305 307 308 310 313 319 326 334 341 341 340 342 341 340 339 344 343 341 342 343 343 342 344 345 339 333 334 334 334 333 334 333 333 332 332 332
287 284 286 290 296 296 295 291 299 303 302 301 303 303 305 307 308 309 312 315 316 326 338 338 339 339 339 336 338 336 335 337 339 338 338 341 343 343 337 333 334 335 334 336 337 334 333 332 331
286 285 287 288 293 293 292 291 296 300 301 301 301 303 303 305 306 308 310 312 320 328 333 337 338 337 333 336 340 339 332 332 335 334 336 337 339 341 339 338 333 333 335 336 335 335 332 334 334
291 290 289 292 296 293 292 292 295 298 296 297 298 299 300 302 306 307 309 316 328 330 332 334 333 337 339 339 336 339 340 336 336 336 338 340 339 339 337 338 337 335 335 335 335 334 334 332 330
293 290 290 293 296 293 292 292 295 296 296 297 298 298 299 299 302 305 307 316 325 329 333 333 334 339 342 343 343 343 343 345 345 345 344 343 342 343 340 338 336 336 337 335 335 333 332 330 331
291 289 290 291 294 294 291 289 291 295 296 297 298 299 300 300 301 304 308 314 316 320 326 331 335 340 343 343 342 338 340 338 337 337 339 341 341 345 345 343 341 341 337 339 338 336 332 333 334
288 295 294 293 289 284 290 281 287 292 294 296 297 296 298 300 302 302 307 310 312 317 317 322 329 334 338 337 334 330 330 327 329 331 332 330 335 336 340 338 338 341 340 339 341 340 338 336 333
291 296 293 292 287 285 286 282 286 291 293 294 295 297 298 300 301 301 304 311 310 313 314 318 323 324 325 325 325 322 320 321 323 323 322 323 327 332 335 335 335 334 332 338 340 340 338 338 337
297 291 289 286 284 279 284 284 285 289 291 294 297 299 301 299 300 301 303 308 310 313 315 316 318 318 319 319 318 318 317 318 318 317 317 319 321 324 328 331 330 331 331 333 335 336 332 326 326
291 284 279 278 278 279 286 284 286 292 296 298 299 300 300 298 298 303 306 309 312 314 314 315 316 316 317 318 318 319 319 319 317 317 317 318 319 320 322 324 324 327 330 332 332 329 326 324 323
289 286 280 276 276 279 288 283 287 300 301 301 301 300 301 300 300 303 307 311 311 311 311 312 313 313 312 312 313 316 317 318 317 318 320 319 319 319 320 319 322 323 326 329 330 326 325 324 323
292 288 290 283 282 280 283 288 293 300 301 301 300 301 299 299 300 302 302 304 305 307 307 308 309 309 309 309 313 315 317 318 319 319 318 318 317 321 318 318 316 318 320 321 323 325 327 328 327
298 298 289 286 279 277 282 284 285 294 296 299 298 296 297 298 299 299 301 302 303 305 307 309 310 311 312 313 314 315 317 317 316 315 315 315 316 317 315 315 315 316 316 317 317 318 321 322 323
293 292 293 290 289 281 279 283 297 297 297 297 298 299 299 297 297 298 301 304 306 307 307 308 309 310 310 311 310 310 310 314 315 314 314 314 314 314 313 314 315 315 315 316 315 316 319 319 319
293 291 291 285 283 285 283 284 300 301 301 302 301 303 301 300 301 301 303 303 304 306 307 307 307 307 308 310 308 308 310 312 311 311 311 312 313 313 313 313 314 315 315 315 314 316 319 320 321
Wind_Speed
8 7 1 4 3 5 5 8 2 4 8 6 10 6 6 3 5 5 4 11 18 17 14 15 19 20 18 18 19 19 19 19 20 20 19 18 17 16 15 14 14 15 14 13 12 12 11 11 10
3 4 4 2 4 2 7 5 10 5 4 11 12 4 4 3 5 8 12 14 24 17 14 13 18 21 20 19 18 18 18 18 19 19 18 17 16 16 15 13 13 14 13 13 12 12 11 10 9
3 2 3 4 5 8 6 4 4 5 7 4 8 3 2 4 4 12 7 17 18 16 14 15 20 21 21 19 18 16 17 17 17 17 17 16 15 14 13 12 12 13 14 13 12 11 10 9 8
2 4 4 3 11 7 6 4 7 11 11 4 4 8 3 6 9 4 15 17 16 14 13 18 19 21 21 19 18 16 16 15 15 16 15 15 14 12 12 12 12 12 12 13 12 11 10 9 7
4 3 2 4 9 5 7 4 4 9 7 5 7 4 1 5 10 15 17 16 16 12 11 14 18 19 20 19 18 16 15 15 14 14 15 14 13 12 11 12 12 12 12 12 12 11 9 8 7
1 3 2 9 10 10 5 1 4 7 14 8 5 5 2 5 10 12 12 10 11 13 11 12 16 18 18 19 17 16 15 15 15 15 15 14 13 13 13 13 13 13 13 12 12 11 10 9 9
5 4 7 5 8 20 4 5 4 6 5 8 4 2 2 5 9 11 12 11 9 9 10 9 9 13 17 17 18 17 16 15 14 14 14 14 14 14 13 14 13 13 12 12 12 11 10 9 9
5 4 4 7 9 9 3 5 6 5 14 9 7 6 4 7 11 12 10 10 9 7 8 10 8 8 8 10 17 17 17 17 15 14 12 13 13 13 13 12 11 12 10 10 10 9 10 10 9
4 2 8 6 7 4 9 3 3 2 6 3 3 4 5 19 13 11 11 7 6 6 6 8 11 10 8 7 11 15 19 18 17 16 16 12 5 6 9 9 11 11 11 11 10 9 9 9 10
5 5 9 4 2 4 6 7 9 9 12 2 3 7 19 19 15 14 14 12 11 11 9 10 10 11 12 9 9 9 9 8 8 9 9 6 5 5 6 8 12 11 11 10 9 10 10 9 4
6 10 5 9 7 8 15 14 6 8 14 8 8 14 18 18 9 9 11 17 20 14 11 12 12 13 14 10 8 7 5 5 5 7 7 6 5 4 4 3 3 3 9 4 6 6 5 6 4
5 5 8 5 7 7 18 6 16 14 16 12 12 15 10 12 12 12 10 10 12 13 14 12 11 12 11 6 8 8 7 6 6 7 7 5 4 4 3 3 4 4 4 5 5 3 5 5 5
4 6 8 10 14 15 11 14 16 17 16 11 11 16 18 12 10 14 13 9 12 13 14 14 11 10 9 7 7 8 10 9 10 9 8 6 5 5 4 4 3 4 2 3 3 4 4 5 5
7 15 17 10 11 8 8 15 5 17 15 12 13 5 12 19 16 10 12 18 16 15 17 15 16 13 12 11 11 8 9 9 9 8 8 9 6 5 4 3 4 4 4 4 4 4 4 4 4
8 5 9 10 9 12 5 12 10 20 8 10 6 11 10 11 15 17 20 16 19 16 15 16 17 16 14 13 10 8 7 7 7 7 8 9 7 5 5 4 4 4 3 4 4 4 3 4 3
4 3 2 13 9 11 11 17 15 16 7 11 8 6 9 10 13 13 12 15 14 14 16 16 14 17 16 13 8 7 5 5 5 5 4 8 9 9 7 6 7 4 5 5 5 5 4 5 5
4 4 6 10 11 8 10 12 19 13 9 10 9 9 9 8 8 10 11 12 11 14 14 14 15 16 15 10 5 5 6 5 4 4 4 7 9 8 7 6 7 6 4 6 6 4 5 5 5
5 3 3 4 5 3 7 5 6 9 9 12 10 9 9 9 11 9 11 12 9 8 9 11 12 11 8 6 5 3 3 4 3 3 4 6 6 7 5 7 6 5 4 6 4 8 5 8 8
3 4 5 6 10 5 8 6 10 10 5 9 11 8 9 11 12 8 7 6 8 7 7 9 11 9 9 5 5 3 5 3 3 4 6 5 6 6 7 7 6 3 6 5 6 5 7 7 3
6 4 6 9 6 3 7 7 8 6 8 12 13 10 9 5 7 8 7 7 9 11 12 10 12 11 9 6 3 4 4 3 4 4 5 7 5 7 6 6 6 7 6 6 7 6 5 3 5
6 5 6 7 7 3 2 7 6 5 4 4 6 7 6 11 11 8 8 10 8 8 10 10 9 9 8 8 6 4 3 2 3 2 2 3 5 4 5 6 6 8 5 7 9 9 9 11 4
6 8 10 7 3 4 3 5 6 6 8 1 1 3 9 9 8 5 9 8 11 9 6 8 8 9 9 11 8 7 5 4 2 2 0 2 3 1 1 3 4 4 4 7 8 8 10 7 9
11 6 10 6 4 5 2 4 8 6 7 7 5 7 9 10 8 9 10 14 6 8 9 9 9 8 7 7 7 6 6 3 3 2 2 3 3 2 5 5 5 4 4 5 7 10 9 9 10
6 2 8 5 4 1 5 6 6 3 4 7 7 9 8 10 11 9 6 7 6 7 5 5 9 5 7 7 8 9 9 6 4 3 2 1 1 3 3 4 5 6 6 6 6 6 6 4 4
5 6 2 4 3 6 3 3 9 7 5 3 4 7 9 7 7 8 11 10 8 9 9 8 9 8 7 8 7 7 6 6 4 3 2 2 2 2 3 3 5 4 6 8 8 5 4 4 5
1 6 7 5 3 4 5 3 5 4 3 3 4 6 11 10 6 8 7 11 12 10 9 9 8 7 5 6 5 4 4 3 3 3 3 3 2 1 2 2 1 2 5 6 7 4 5 5 7
3 2 4 6 3 3 3 5 5 5 7 6 6 15 14 12 10 12 10 8 7 9 6 6 5 4 3 3 2 2 4 6 5 5 4 3 2 2 3 3 4 4 4 5 6 5 8 7 7
2 6 3 4 2 3 5 3 5 2 3 3 5 6 8 9 9 7 8 7 5 6 6 6 6 6 5 6 5 4 6 5 5 4 4 4 4 3 2 0 2 4 5 5 5 5 7 7 8
6 4 5 3 4 5 3 6 3 4 3 5 3 3 4 6 7 5 3 3 6 6 7 7 7 8 7 7 5 5 4 4 5 4 4 6 4 5 4 4 4 4 6 5 5 7 8 7 9
1 3 4 6 5 4 3 6 1 3 3 2 5 3 2 5 3 6 9 7 6 7 7 7 6 7 8 7 6 7 6 6 5 6 6 5 5 4 5 5 5 5 6 6 6 7 7 8 10
Wind_Direction
311 297 315 28 45 63 262 253 245 333 309 329 328 250 210 153 169 211 126 136 138 149 156 157 151 140 131 129 129 130 130 131 132 133 134 133 133 132 133 133 137 139 139 140 141 143 144 144 142
308 315 37 82 116 188 258 246 241 239 277 318 319 317 313 215 106 110 134 157 147 148 152 155 154 139 135 134 135 136 136 135 136 135 133 134 136 139 139 140 142 143 145 146 148 150 154 157 154
292 65 90 154 184 205 227 237 272 278 292 290 300 249 318 303 31 152 130 150 143 145 153 157 153 140 138 139 141 141 139 138 138 137 136 137 140 140 140 142 148 153 154 153 154 158 165 171 171
84 21 22 165 232 252 213 245 347 330 319 122 311 283 31 4 147 135 136 140 142 143 150 153 153 142 140 142 144 146 144 142 140 141 141 144 145 146 150 154 160 162 161 161 165 170 177 180 187
31 62 219 242 247 242 249 299 306 288 278 323 295 243 0 30 89 124 138 143 141 140 145 148 151 143 141 145 147 148 149 146 145 146 149 153 156 160 165 167 171 171 171 172 174 179 183 189 196
54 98 169 230 246 245 255 291 268 264 282 289 294 118 40 85 106 127 131 133 136 139 139 146 149 145 146 147 150 150 155 156 157 160 163 165 169 173 177 181 182 181 180 183 185 186 190 196 205
143 121 222 217 243 262 256 248 226 277 316 282 158 84 90 101 121 129 126 125 128 134 134 135 142 150 152 153 156 157 162 165 167 170 173 175 178 184 191 190 191 191 192 192 193 194 199 204 214
130 124 227 214 215 271 199 215 197 224 283 238 145 168 203 156 141 127 118 120 125 131 139 138 138 142 153 160 163 166 168 170 174 178 183 187 191 195 197 202 203 200 203 206 211 210 212 213 224
125 213 229 215 185 224 279 312 249 294 299 332 116 131 138 133 135 127 123 112 122 144 158 151 157 161 162 163 175 176 178 179 181 182 185 189 193 204 212 211 213 211 210 212 216 223 231 235 239
163 199 221 186 223 280 293 303 323 341 328 107 27 86 131 139 150 155 158 155 168 174 176 171 167 171 178 182 181 179 187 186 187 188 188 185 187 198 209 220 219 221 221 224 232 233 242 251 251
210 233 204 272 269 278 282 282 303 295 293 245 199 144 141 139 143 160 179 180 180 182 179 183 181 178 180 184 182 188 189 186 191 190 189 186 182 195 202 208 240 216 229 223 226 237 228 230 230
256 235 223 250 248 255 264 282 268 262 253 275 230 151 140 152 168 169 189 185 171 182 190 186 190 184 188 182 185 186 193 191 196 202 192 181 195 192 208 214 218 226 215 223 232 240 250 251 247
242 269 263 232 239 240 255 256 260 285 278 286 148 156 149 169 195 189 176 199 186 187 191 192 188 189 189 173 184 189 196 196 197 195 196 195 200 202 190 210 214 237 258 241 257 257 265 270 278
219 226 249 260 255 261 253 248 148 267 277 252 129 156 185 167 187 167 173 201 195 198 195 190 193 190 188 196 185 190 196 203 203 199 202 190 200 204 209 208 214 210 203 221 222 226 243 270 281
237 245 244 236 238 244 205 283 211 259 236 237 220 157 187 179 179 189 186 192 196 205 198 192 189 188 195 199 194 184 192 190 201 209 195 201 204 200 194 209 229 229 213 222 239 243 237 254 250
248 107 243 249 213 247 145 259 255 233 172 226 206 234 183 179 185 196 199 191 191 197 191 192 190 191 194 196 191 187 175 184 195 194 205 205 204 201 204 217 232 210 199 204 219 226 234 239 224
354 248 218 298 195 212 160 236 246 229 199 229 208 205 218 234 201 178 203 198 194 194 197 190 188 193 191 182 164 170 167 180 186 194 187 204 211 215 217 225 230 203 205 215 227 226 215 232 238
236 284 304 275 334 194 229 239 267 244 200 224 215 233 189 218 231 230 183 205 195 196 190 185 179 175 156 138 145 145 163 182 200 209 196 211 228 243 222 230 226 209 209 232 233 229 215 237 247
218 236 246 272 270 257 235 235 240 246 207 256 256 238 234 200 222 219 220 144 155 161 172 173 153 157 143 153 153 153 188 174 203 193 231 230 215 234 227 233 265 256 223 228 226 230 237 244 221
207 239 258 274 272 159 301 298 273 259 229 202 218 234 241 260 214 196 198 177 178 176 183 172 177 160 168 164 142 146 150 164 164 175 194 223 237 225 217 221 241 251 251 239 244 227 246 249 202
246 203 255 210 322 269 302 310 331 311 252 220 212 199 224 221 216 192 185 191 165 170 177 181 168 151 148 140 116 90 90 95 151 145 150 136 212 206 217 247 257 259 223 235 232 235 232 247 258
271 227 239 261 125 251 66 274 304 332 326 19 270 288 267 232 219 216 193 185 176 178 126 125 130 140 153 156 156 159 164 152 188 146 267 25 32 340 289 237 237 250 236 246 248 235 228 234 235
240 280 200 235 185 116 315 82 272 335 317 299 297 237 261 243 254 244 207 195 153 139 159 155 152 147 134 142 138 126 120 135 141 113 44 20 31 351 343 337 332 299 272 252 249 262 245 232 252
265 113 47 47 90 59 234 138 284 242 257 314 317 321 291 240 247 231 165 112 107 112 110 117 117 111 124 121 127 137 144 157 138 167 165 89 65 84 41 8 347 319 310 299 289 283 261 204 205
73 51 319 333 351 214 131 91 232 292 303 276 283 329 337 319 205 165 155 137 123 122 127 126 131 135 146 134 138 139 141 136 159 164 137 54 58 59 26 40 0 341 321 315 312 295 248 206 202
153 145 149 218 220 272 321 235 248 294 85 31 73 72 41 24 37 70 90 125 125 124 126 125 125 130 123 114 136 150 145 145 169 170 136 124 127 136 76 54 46 351 328 317 313 294 265 226 218
185 97 186 104 15 71 257 289 316 2 43 31 64 80 73 46 23 65 55 44 70 88 81 105 105 89 122 133 112 155 160 164 167 150 129 127 142 143 66 51 9 353 335 313 305 300 295 280 256
135 165 87 9 168 255 292 265 232 251 136 50 40 60 94 106 85 66 86 98 88 108 119 129 141 142 151 139 148 153 149 154 153 141 151 175 187 174 149 178 314 310 312 310 313 293 287 281 278
357 357 62 95 154 158 267 261 272 222 193 142 97 36 91 95 101 95 104 96 130 131 141 143 142 144 160 167 167 157 173 170 155 172 195 199 197 199 206 218 243 263 279 283 295 288 283 285 289
93 97 98 143 217 230 193 257 320 55 309 346 290 200 100 92 99 149 162 162 167 173 169 168 169 172 186 186 180 184 182 173 187 212 219 214 232 233 224 216 223 246 261 272 275 282 287 285 287